THY6805 LTAC-LTCB

Flight info

Callsign THY6805
Flight time 0h 52m
Altitude 29000
Route LTAC/03C N0446F290 ILHA1T ILHAN UW71 CRM M11 EMLAD EMLA1P LTCB/28
Aircraft B738/M-CDT/C

Departure

Time 2026-04-12 09:46
Airport Esenboğa International Airport (LTAC)

Arrival

Time 2026-04-12 10:38
Airport Ordu–Giresun Airport (LTCB)
Time Latitude Longitude Altitude Speed Heading
2026-04-12 09:34 40.11461 32.98912 3112 ft 0 kts 127°
2026-04-12 09:43 40.11457 32.98911 3112 ft 1 kts 177°
2026-04-12 09:43 40.11455 32.98903 3112 ft 1 kts 253°
2026-04-12 09:43 40.11455 32.98872 3112 ft 7 kts 267°
2026-04-12 09:44 40.11432 32.98790 3112 ft 13 kts 229°
2026-04-12 09:44 40.11350 32.98703 3111 ft 19 kts 216°
2026-04-12 09:44 40.11274 32.98555 3108 ft 22 kts 287°
2026-04-12 09:44 40.11367 32.98405 3108 ft 21 kts 317°
2026-04-12 09:45 40.11499 32.98406 3109 ft 20 kts 32°
2026-04-12 09:45 40.11721 32.98617 3111 ft 71 kts 36°
2026-04-12 09:45 40.12299 32.99168 3117 ft 132 kts 37°
2026-04-12 09:45 40.13192 32.99989 3206 ft 174 kts 32°
2026-04-12 09:46 40.14191 33.00913 3884 ft 179 kts 35°
2026-04-12 09:46 40.15199 33.01969 4611 ft 185 kts 38°
2026-04-12 09:46 40.16201 33.03021 5063 ft 188 kts 37°
2026-04-12 09:46 40.17240 33.04082 5486 ft 191 kts 36°
2026-04-12 09:47 40.18297 33.05161 5873 ft 195 kts 36°
2026-04-12 09:47 40.19374 33.06260 6267 ft 197 kts 36°
2026-04-12 09:47 40.20461 33.07370 6673 ft 202 kts 36°
2026-04-12 09:47 40.21585 33.08537 7071 ft 212 kts 41°
2026-04-12 09:48 40.22469 33.10124 7476 ft 221 kts 62°
2026-04-12 09:48 40.23159 33.11973 7876 ft 230 kts 63°
2026-04-12 09:48 40.23864 33.13904 8288 ft 239 kts 64°
2026-04-12 09:48 40.24596 33.15915 8677 ft 250 kts 64°
2026-04-12 09:49 40.25352 33.17991 9062 ft 262 kts 64°
2026-04-12 09:49 40.26159 33.20204 9498 ft 275 kts 64°
2026-04-12 09:49 40.26992 33.22487 10111 ft 281 kts 64°
2026-04-12 09:49 40.27843 33.24816 10629 ft 287 kts 64°
2026-04-12 09:50 40.28742 33.27277 10826 ft 312 kts 64°
2026-04-12 09:50 40.29713 33.29934 11023 ft 334 kts 64°
2026-04-12 09:50 40.30749 33.32770 11263 ft 354 kts 64°
2026-04-12 09:50 40.31823 33.35711 11837 ft 361 kts 64°
2026-04-12 09:51 40.32911 33.38697 12580 ft 364 kts 64°
2026-04-12 09:51 40.33995 33.41672 13311 ft 367 kts 64°
2026-04-12 09:51 40.35100 33.44710 13991 ft 372 kts 64°
2026-04-12 09:51 40.36218 33.47785 14600 ft 376 kts 64°
2026-04-12 09:52 40.37347 33.50893 15228 ft 379 kts 64°
2026-04-12 09:52 40.38489 33.54040 15855 ft 383 kts 64°
2026-04-12 09:52 40.39639 33.57215 16479 ft 386 kts 64°
2026-04-12 09:52 40.40795 33.60407 17084 ft 390 kts 64°
2026-04-12 09:53 40.41965 33.63641 17689 ft 394 kts 63°
2026-04-12 09:53 40.43145 33.66907 18284 ft 397 kts 63°
2026-04-12 09:53 40.44335 33.70209 18798 ft 401 kts 64°
2026-04-12 09:53 40.45360 33.73582 19285 ft 405 kts 70°
2026-04-12 09:54 40.46223 33.77119 19793 ft 409 kts 72°
2026-04-12 09:54 40.47048 33.80710 20286 ft 412 kts 72°
2026-04-12 09:54 40.47613 33.83146 20617 ft 414 kts 72°
2026-04-12 09:54 40.48770 33.87944 21268 ft 419 kts 71°
2026-04-12 09:55 40.49676 33.91604 21749 ft 422 kts 71°
2026-04-12 09:55 40.50296 33.94083 22077 ft 424 kts 70°
2026-04-12 09:55 40.51315 33.97730 22535 ft 427 kts 68°
2026-04-12 09:55 40.52799 34.02539 23148 ft 431 kts 66°
2026-04-12 09:56 40.53564 34.04953 23456 ft 432 kts 66°
2026-04-12 09:56 40.54729 34.08625 23857 ft 435 kts 66°
2026-04-12 09:56 40.55893 34.12323 24187 ft 439 kts 66°
2026-04-12 09:56 40.57055 34.16052 24516 ft 443 kts 66°
2026-04-12 09:57 40.58219 34.19816 24855 ft 446 kts 66°
2026-04-12 09:57 40.59384 34.23609 25188 ft 449 kts 66°
2026-04-12 09:57 40.60552 34.27423 25507 ft 452 kts 66°
2026-04-12 09:57 40.61731 34.31281 25819 ft 455 kts 66°
2026-04-12 09:58 40.62914 34.35161 26133 ft 457 kts 66°
2026-04-12 09:58 40.64100 34.39052 26446 ft 460 kts 66°
2026-04-12 09:58 40.65294 34.42976 26758 ft 463 kts 66°
2026-04-12 09:58 40.66493 34.46923 27054 ft 465 kts 66°
2026-04-12 09:59 40.67699 34.50896 27344 ft 468 kts 66°
2026-04-12 09:59 40.68893 34.54839 27692 ft 469 kts 66°
2026-04-12 09:59 40.70098 34.58822 28139 ft 468 kts 66°
2026-04-12 09:59 40.71296 34.62791 28584 ft 466 kts 66°
2026-04-12 10:00 40.72497 34.66770 29015 ft 466 kts 66°
2026-04-12 10:00 40.74909 34.74780 29097 ft 471 kts 66°
2026-04-12 10:01 40.77277 34.82787 29082 ft 464 kts 66°
2026-04-12 10:01 40.79603 34.90726 29098 ft 464 kts 66°
2026-04-12 10:02 40.81933 34.98686 29111 ft 464 kts 66°
2026-04-12 10:02 40.84256 35.06638 29098 ft 464 kts 67°
2026-04-12 10:03 40.86559 35.14541 29101 ft 464 kts 67°
2026-04-12 10:03 40.88869 35.22495 29098 ft 463 kts 67°
2026-04-12 10:04 40.91174 35.30456 29105 ft 463 kts 67°
2026-04-12 10:04 40.93469 35.38404 29112 ft 463 kts 67°
2026-04-12 10:05 40.95763 35.46374 29097 ft 463 kts 67°
2026-04-12 10:05 40.98051 35.54342 29102 ft 463 kts 68°
2026-04-12 10:06 41.00332 35.62306 29110 ft 463 kts 68°
2026-04-12 10:06 41.02613 35.70285 29115 ft 463 kts 67°
2026-04-12 10:07 41.04930 35.78171 29120 ft 463 kts 67°
2026-04-12 10:07 41.07279 35.86123 29131 ft 463 kts 67°
2026-04-12 10:08 41.09608 35.94086 29139 ft 463 kts 68°
2026-04-12 10:08 41.11868 36.02071 29153 ft 463 kts 68°
2026-04-12 10:09 41.14103 36.10078 29145 ft 463 kts 68°
2026-04-12 10:09 41.16343 36.18102 28949 ft 467 kts 68°
2026-04-12 10:09 41.17469 36.22136 28640 ft 464 kts 68°
2026-04-12 10:10 41.18567 36.26074 28342 ft 463 kts 69°
2026-04-12 10:10 41.19684 36.30083 28044 ft 464 kts 69°
2026-04-12 10:10 41.20802 36.34105 27729 ft 465 kts 69°
2026-04-12 10:10 41.21923 36.38141 27404 ft 465 kts 69°
2026-04-12 10:11 41.23041 36.42176 27087 ft 465 kts 69°
2026-04-12 10:11 41.24155 36.46200 26776 ft 465 kts 69°
2026-04-12 10:11 41.25258 36.50238 26458 ft 464 kts 71°
2026-04-12 10:11 41.26017 36.54353 26151 ft 464 kts 81°
2026-04-12 10:12 41.26317 36.58668 25845 ft 463 kts 89°
2026-04-12 10:12 41.26132 36.62871 25552 ft 462 kts 96°
2026-04-12 10:12 41.25810 36.67114 25256 ft 460 kts 96°
2026-04-12 10:12 41.25473 36.71334 24959 ft 458 kts 96°
2026-04-12 10:13 41.25141 36.75542 24665 ft 456 kts 96°
2026-04-12 10:13 41.24822 36.79721 24371 ft 454 kts 96°
2026-04-12 10:13 41.24514 36.83886 24084 ft 451 kts 96°
2026-04-12 10:13 41.24214 36.88016 23798 ft 448 kts 96°
2026-04-12 10:14 41.23919 36.92121 23460 ft 445 kts 96°
2026-04-12 10:14 41.23626 36.96200 23113 ft 442 kts 96°
2026-04-12 10:14 41.23334 37.00246 22777 ft 439 kts 96°
2026-04-12 10:14 41.23041 37.04270 22439 ft 437 kts 96°
2026-04-12 10:15 41.22748 37.08280 22109 ft 434 kts 96°
2026-04-12 10:15 41.22456 37.12262 21779 ft 432 kts 97°
2026-04-12 10:15 41.22163 37.16226 21471 ft 430 kts 97°
2026-04-12 10:15 41.21869 37.20171 21131 ft 428 kts 97°
2026-04-12 10:16 41.21580 37.24050 20820 ft 426 kts 97°
2026-04-12 10:16 41.21287 37.27963 20507 ft 424 kts 97°
2026-04-12 10:16 41.20994 37.31847 20199 ft 422 kts 97°
2026-04-12 10:16 41.20701 37.35720 19891 ft 420 kts 97°
2026-04-12 10:17 41.20408 37.39577 19616 ft 418 kts 97°
2026-04-12 10:17 41.20116 37.43401 19360 ft 415 kts 97°
2026-04-12 10:17 41.19825 37.47204 19124 ft 412 kts 97°
2026-04-12 10:17 41.19535 37.50978 18899 ft 410 kts 97°
2026-04-12 10:18 41.19247 37.54719 18665 ft 402 kts 97°
2026-04-12 10:18 41.18969 37.58304 18434 ft 391 kts 97°
2026-04-12 10:18 41.18812 37.61860 18165 ft 381 kts 90°
2026-04-12 10:18 41.19093 37.65315 17902 ft 372 kts 81°
2026-04-12 10:19 41.19569 37.68653 17653 ft 363 kts 80°
2026-04-12 10:19 41.20043 37.71908 17396 ft 355 kts 80°
2026-04-12 10:19 41.20502 37.75101 17141 ft 348 kts 81°
2026-04-12 10:19 41.20941 37.78239 16912 ft 343 kts 81°
2026-04-12 10:20 41.21369 37.81347 16686 ft 341 kts 81°
2026-04-12 10:20 41.21791 37.84451 16434 ft 340 kts 81°
2026-04-12 10:20 41.22209 37.87530 16194 ft 338 kts 81°
2026-04-12 10:20 41.22625 37.90606 15952 ft 337 kts 81°
2026-04-12 10:21 41.23031 37.93620 15725 ft 334 kts 81°
2026-04-12 10:21 41.23437 37.96638 15517 ft 329 kts 81°
2026-04-12 10:21 41.23837 37.99617 15141 ft 324 kts 81°
2026-04-12 10:21 41.24227 38.02527 14751 ft 316 kts 81°
2026-04-12 10:22 41.24608 38.05373 14373 ft 309 kts 81°
2026-04-12 10:22 41.24979 38.08151 14013 ft 302 kts 81°
2026-04-12 10:22 41.25341 38.10868 13625 ft 295 kts 81°
2026-04-12 10:22 41.25695 38.13531 13241 ft 289 kts 81°
2026-04-12 10:23 41.26042 38.16140 12856 ft 284 kts 81°
2026-04-12 10:23 41.26381 38.18700 12472 ft 279 kts 81°
2026-04-12 10:23 41.26713 38.21214 12096 ft 274 kts 81°
2026-04-12 10:23 41.27042 38.23700 11730 ft 270 kts 81°
2026-04-12 10:24 41.27363 38.26138 11370 ft 266 kts 81°
2026-04-12 10:24 41.27678 38.28530 11058 ft 260 kts 81°
2026-04-12 10:24 41.27987 38.30876 10741 ft 255 kts 81°
2026-04-12 10:24 41.28109 38.33186 10407 ft 248 kts 105°
2026-04-12 10:25 41.27421 38.35224 10154 ft 240 kts 121°
2026-04-12 10:25 41.26477 38.37056 9847 ft 239 kts 131°
2026-04-12 10:25 41.25393 38.38690 9621 ft 240 kts 134°
2026-04-12 10:25 41.24263 38.40327 9439 ft 240 kts 134°
2026-04-12 10:26 41.23132 38.41967 9277 ft 242 kts 133°
2026-04-12 10:26 41.21998 38.43624 9121 ft 243 kts 133°
2026-04-12 10:26 41.20859 38.45297 8965 ft 245 kts 133°
2026-04-12 10:26 41.19712 38.46987 8796 ft 247 kts 133°
2026-04-12 10:27 41.18556 38.48696 8600 ft 250 kts 133°
2026-04-12 10:27 41.17395 38.50416 8368 ft 249 kts 133°
2026-04-12 10:27 41.16249 38.52114 8140 ft 246 kts 133°
2026-04-12 10:27 41.15113 38.53796 7926 ft 243 kts 132°
2026-04-12 10:28 41.13987 38.55463 7701 ft 241 kts 132°
2026-04-12 10:28 41.12869 38.57117 7472 ft 239 kts 132°
2026-04-12 10:28 41.11628 38.58550 7224 ft 237 kts 155°
2026-04-12 10:28 41.10043 38.58929 7011 ft 233 kts 188°
2026-04-12 10:29 41.08549 38.58193 6822 ft 235 kts 214°
2026-04-12 10:29 41.07257 38.56833 6635 ft 240 kts 221°
2026-04-12 10:29 41.06016 38.55332 6428 ft 242 kts 223°
2026-04-12 10:29 41.04780 38.53812 6174 ft 242 kts 223°
2026-04-12 10:30 41.03545 38.52303 5919 ft 242 kts 223°
2026-04-12 10:30 41.02307 38.50802 5674 ft 241 kts 223°
2026-04-12 10:30 41.01066 38.49306 5426 ft 240 kts 223°
2026-04-12 10:30 40.99834 38.47829 5174 ft 238 kts 223°
2026-04-12 10:31 40.98619 38.46374 4976 ft 231 kts 222°
2026-04-12 10:31 40.97444 38.44973 4726 ft 223 kts 222°
2026-04-12 10:31 40.96312 38.43625 4456 ft 214 kts 222°
2026-04-12 10:31 40.95226 38.42333 4176 ft 205 kts 222°
2026-04-12 10:32 40.94193 38.41106 3910 ft 194 kts 223°
2026-04-12 10:32 40.93221 38.39952 3632 ft 181 kts 223°
2026-04-12 10:32 40.92343 38.38835 3385 ft 170 kts 236°
2026-04-12 10:32 40.92074 38.37435 3191 ft 149 kts 278°
2026-04-12 10:33 40.92257 38.36074 2974 ft 152 kts 283°
2026-04-12 10:33 40.92476 38.34723 2738 ft 147 kts 284°
2026-04-12 10:33 40.92688 38.33433 2555 ft 145 kts 284°
2026-04-12 10:33 40.92907 38.32116 2387 ft 145 kts 284°
2026-04-12 10:34 40.93120 38.30830 2225 ft 145 kts 284°
2026-04-12 10:34 40.93336 38.29526 2063 ft 145 kts 284°
2026-04-12 10:34 40.93546 38.28225 1890 ft 144 kts 284°
2026-04-12 10:34 40.93756 38.26922 1720 ft 145 kts 284°
2026-04-12 10:35 40.93963 38.25636 1563 ft 142 kts 283°
2026-04-12 10:35 40.94170 38.24351 1432 ft 143 kts 284°
2026-04-12 10:35 40.94377 38.23065 1233 ft 142 kts 283°
2026-04-12 10:35 40.94580 38.21800 1040 ft 139 kts 283°
2026-04-12 10:36 40.94781 38.20550 923 ft 139 kts 283°
2026-04-12 10:36 40.94983 38.19291 823 ft 140 kts 283°
2026-04-12 10:36 40.95186 38.18029 721 ft 140 kts 283°
2026-04-12 10:36 40.95387 38.16771 628 ft 140 kts 283°
2026-04-12 10:37 40.95590 38.15507 522 ft 140 kts 283°
2026-04-12 10:37 40.95791 38.14251 420 ft 140 kts 283°
2026-04-12 10:37 40.95991 38.12997 318 ft 139 kts 283°
2026-04-12 10:37 40.96192 38.11738 223 ft 140 kts 283°
2026-04-12 10:38 40.96392 38.10478 67 ft 140 kts 283°
2026-04-12 10:38 40.96571 38.09269 20 ft 107 kts 288°
2026-04-12 10:38 40.96648 38.08873 17 ft 19 kts 282°
2026-04-12 10:38 40.96675 38.08708 17 ft 18 kts 282°
2026-04-12 10:39 40.96702 38.08548 17 ft 18 kts 283°
2026-04-12 10:39 40.96729 38.08393 18 ft 17 kts 282°
2026-04-12 10:39 40.96750 38.08247 20 ft 14 kts 277°
2026-04-12 10:39 40.96746 38.08160 21 ft 9 kts 250°
2026-04-12 10:40 40.96701 38.08109 20 ft 9 kts 198°
2026-04-12 10:40 40.96648 38.08091 19 ft 7 kts 193°
2026-04-12 10:40 40.96603 38.08077 19 ft 7 kts 193°
2026-04-12 10:40 40.96558 38.08063 19 ft 7 kts 193°
2026-04-12 10:41 40.96514 38.08056 21 ft 4 kts 185°
2026-04-12 10:41 40.96505 38.08055 19 ft 0 kts 185°